User: anonymous   Login
Location: Unspecified
(0.0000°N, 0.0000°E)
Time: 04:53:56
(UTC+02:00)
Language:

Meteor 1-31 Rocket - Orbit

View from above orbital plane
View from above orbital plane
View from above satellite
View from above satellite

Ground track
Ground track

The orbit data is extracted from the following two-line orbital elements,

1 12586U 81065B   17207.22704649 +.00000467 +00000-0 +32525-4 0  9991
2 12586 097.4993 188.0233 0020649 068.4833 291.8595 15.09991333958221
Epoch (UTC): 26 July 2017 05:26:56
Eccentricity: 0.0020649
inclination: 97.4993°
perigee height: 522 km
apogee height: 550 km
right ascension of ascending node: 188.0233°
argument of perigee: 68.4833°
revolutions per day: 15.09991333
mean anomaly at epoch: 291.8595°
orbit number at epoch: 95822

The dashed part of the orbit path shows where the satellite is in the earth's shadow,  

DLR